Location: Unspecified
(0.0000°N, 0.0000°E)
Time: 01:17:26
(UTC+00:00)

SRMSAT - Pass Details

Date: 27 March 2019
Orbit: 849 x 866 km, 20.0° (Epoch: 17 April)

Event Time Altitude Azimuth Distance (km) Brightness Sun altitude
Rises 20:32:11 0° 230° (SW) 3,409 ? -36.7°
Reaches altitude 10° 20:35:12 10° 217° (SW) 2,470 ? -37.4°
Enters shadow 20:36:02 13° 211° (SSW) 2,240 ? -37.6°
